Great Falls, MT

7:25 PM MDT on September 29, 2016 (GMT -0600)
Great Falls International

Weather History for KGTF - November, 2011

Change the Weather History Date:

Thursday, November 17, 2011

  Actual Average Record
Temperature  
Mean Temperature 34 °F 33 °F  
Max Temperature 46 °F 42 °F 66 °F (1908)
Min Temperature 21 °F 23 °F -20 °F (1903)
Degree Days  
Heating Degree Days 31 32  
Month to date heating degree days 521 493  
Since 1 July heating degree days 1217 1513  
Cooling Degree Days 0 0  
Month to date cooling degree days 0 0  
Year to date cooling degree days 365 298  
Moisture  
Dew Point 19 °F    
Average Humidity 49    
Maximum Humidity 70    
Minimum Humidity 27    
Precipitation  
Precipitation 0.00 in 0.02 in 0.56 in (1941)
Month to date precipitation 0.13 0.34  
Year to date precipitation 15.98 13.95  
Snow  
Snow 0.00 in 0.30 in 5.10 in (1985)
Month to date snowfall 2.1 4.2  
Since 1 July snowfall 2.2 9.8  
Since 1 September snowfall 2.2 9.5  
Snow Depth 0.00 in    
Sea Level Pressure  
Sea Level Pressure 29.63 in    
Wind  
Wind Speed 20 mph (SW)    
Max Wind Speed 38 mph    
Max Gust Speed 47 mph    
Visibility 10 miles    
Events      
T = Trace of Precipitation, MM = Missing Value Source: NWS Daily Summary

Daily Weather History Graph

Daily Weather History Graph

Search for Another Location

Airport or City:

Trip Planner

Search our weather history database for the weather conditions in past years. The results will help you decide how hot, cold, wet, or windy it might be!

Date:

Astronomy

Nov. 17, 2011 Rise Set
Actual Time 7:32 AM MST 4:47 PM MST
Civil Twilight 6:59 AM MST 5:21 PM MST
Nautical Twilight 6:21 AM MST 5:58 PM MST
Astronomical Twilight 5:45 AM MST 6:34 PM MST
Moon 11:21 PM MST (11/17) 12:36 PM MST (11/17)
Length of Visible Light 10h 21m
Length of Day
9h 14m
Waning Gibbous, 59% of the Moon is Illuminated
Nov 17
Waning Gibbous
Nov 18
Last Quarter
Nov 24
New
Dec 2
First Quarter
Dec 10
Full

Hourly Weather History & Observations

Time (MST) Temp. Windchill Dew Point Humidity Pressure Visibility Wind Dir Wind Speed Gust Speed Precip Events Conditions
12:53 AM 35.1 °F 26.4 °F 12.9 °F 40% 29.85 in 10.0 mi SSW 12.7 mph - N/A   Clear
1:53 AM 37.0 °F 28.1 °F 14.0 °F 39% 29.80 in 10.0 mi South 15.0 mph 25.3 mph N/A   Clear
2:53 AM 36.0 °F 24.4 °F 14.0 °F 41% 29.76 in 10.0 mi SSW 23.0 mph - N/A   Clear
3:53 AM 37.9 °F 27.9 °F 17.1 °F 43% 29.71 in 10.0 mi SSW 19.6 mph 27.6 mph N/A   Clear
4:53 AM 39.9 °F 27.8 °F 17.1 °F 40% 29.62 in 10.0 mi South 33.4 mph 46.0 mph N/A   Clear
5:53 AM 41.0 °F 32.2 °F 19.9 °F 43% 29.63 in 10.0 mi SSW 18.4 mph 27.6 mph N/A   Scattered Clouds
6:53 AM 39.0 °F 29.6 °F 24.1 °F 55% 29.56 in 10.0 mi SSW 18.4 mph 25.3 mph N/A   Clear
7:53 AM 39.2 °F 32.0 °F 23.0 °F 52% 29.48 in 10.0 mi SW 11.5 mph - N/A   Partly Cloudy
8:53 AM 44.1 °F 35.0 °F 30.0 °F 58% 29.52 in 10.0 mi WSW 24.2 mph 33.4 mph N/A   Partly Cloudy
9:53 AM 44.6 °F 34.4 °F 32.0 °F 61% 29.45 in 10.0 mi SW 32.2 mph 44.9 mph N/A   Overcast
10:53 AM 42.1 °F 33.3 °F 33.1 °F 70% 29.54 in 10.0 mi SW 19.6 mph 28.8 mph N/A   Scattered Clouds
11:31 AM 42.8 °F 33.3 °F 30.2 °F 61% 29.48 in 10.0 mi West 24.2 mph 33.4 mph N/A   Overcast
11:53 AM 43.0 °F 33.3 °F 28.0 °F 56% 29.55 in 10.0 mi West 25.3 mph 36.8 mph N/A   Scattered Clouds
12:53 PM 46.0 °F 36.5 °F 19.9 °F 35% 29.53 in 10.0 mi WSW 31.1 mph 44.9 mph N/A   Clear
1:53 PM 44.1 °F 33.2 °F 14.0 °F 30% 29.55 in 10.0 mi West 35.7 mph 42.6 mph N/A   Clear
2:53 PM 42.1 °F 31.7 °F 10.9 °F 28% 29.59 in 10.0 mi West 27.6 mph 39.1 mph N/A   Clear
3:53 PM 39.0 °F 28.5 °F 12.0 °F 33% 29.63 in 10.0 mi West 23.0 mph 35.7 mph N/A   Clear
4:53 PM 35.1 °F 25.2 °F 14.0 °F 42% 29.67 in 10.0 mi West 16.1 mph - N/A   Clear
5:53 PM 32.0 °F 20.8 °F 15.1 °F 50% 29.68 in 10.0 mi WSW 17.3 mph - N/A   Clear
6:53 PM 30.0 °F 19.1 °F 15.1 °F 54% 29.69 in 10.0 mi West 15.0 mph - N/A   Clear
7:53 PM 26.1 °F 16.2 °F 16.0 °F 66% 29.72 in 10.0 mi SSW 10.4 mph - N/A   Clear
8:53 PM 24.1 °F 13.7 °F 15.1 °F 69% 29.70 in 10.0 mi SW 10.4 mph - N/A   Clear
9:53 PM 26.6 °F 17.5 °F 15.8 °F 64% 29.59 in 10.0 mi SSW 9.2 mph - N/A   Clear
10:53 PM 27.0 °F 15.2 °F 15.1 °F 61% 29.68 in 10.0 mi SW 15.0 mph - N/A   Clear
11:53 PM 24.1 °F 15.2 °F 15.1 °F 69% 29.70 in 10.0 mi WSW 8.1 mph - N/A   Clear